DW6376 Weather Reports


Display with metric or nautical units.
time (UTC)temp
F
wind
direction
speed
MPH
gust
MPH
rain 1hr
in
rain 24hr
in
rain mn
in
humidity
%
barometer
mb
20260506044537 47 228 0.0 0.0 0.00 0.00 0.00 70 1010.6
20260506043018 48 228 0.0 0.0 0.00 0.00 0.00 69 1010.5
20260506041517 48 228 0.0 0.0 0.00 0.00 0.00 68 1010.5
20260506040005 48 228 0.0 0.0 0.00 0.00 0.00 68 1010.4
20260506034501 49 228 0.0 0.0 0.00 0.00 0.00 67 1010.2
20260506033100 50 228 0.0 0.0 0.00 0.00 0.00 66 1010.1
20260506031559 50 228 0.0 0.0 0.00 0.00 0.00 67 1010.0
20260506030058 51 228 0.0 0.0 0.00 0.00 0.00 65 1009.7
20260506024601 52 228 0.0 0.0 0.00 0.00 0.00 62 1009.7
20260506023059 54 228 0.0 0.0 0.00 0.00 0.00 59 1009.5
20260506021554 55 228 0.0 0.0 0.00 0.00 0.00 56 1009.4
20260506020042 55 228 0.0 0.0 0.00 0.00 0.00 55 1009.2
20260506014544 56 228 0.0 0.0 0.00 0.00 0.00 53 1009.2
20260506013041 57 228 0.0 0.0 0.00 0.00 0.00 50 1009.0
20260506011540 59 227 0.0 0.0 0.00 0.00 0.00 48 1008.9
20260506010039 59 227 0.0 0.0 0.00 0.00 0.00 48 1008.9
20260506004537 58 227 0.0 0.0 0.00 0.00 0.00 47 1008.9
20260506003038 58 227 0.0 0.0 0.00 0.00 0.00 49 1008.7
20260506001539 57 228 0.0 0.0 0.00 0.00 0.00 50 1008.8
20260506000016 57 227 0.0 0.0 0.00 0.00 0.00 48 1008.7
20260505234527 57 227 0.0 0.0 0.00 0.00 0.00 49 1008.7
20260505233059 58 227 0.0 0.0 0.00 0.00 0.00 49 1008.7
20260505231604 57 227 0.0 0.0 0.00 0.00 0.00 52 1008.7
20260505230054 56 227 0.0 0.0 0.00 0.00 0.00 52 1008.8
20260505224540 56 227 0.0 0.0 0.00 0.00 0.00 52 1008.8
20260505223040 55 227 0.0 0.0 0.00 0.00 0.00 52 1009.0
20260505221540 55 227 0.0 0.0 0.00 0.00 0.00 56 1009.2
20260505220038 55 227 0.0 0.0 0.00 0.00 0.00 55 1009.1
20260505214539 55 227 0.0 0.0 0.00 0.00 0.00 51 1009.0
20260505213047 55 227 0.0 0.0 0.00 0.00 0.00 52 1009.1
20260505211538 55 227 0.0 0.0 0.00 0.00 0.00 51 1009.1
20260505210019 55 227 0.0 0.0 0.00 0.00 0.00 52 1009.0
20260505204518 55 227 0.0 0.0 0.00 0.00 0.00 50 1009.0
20260505203117 54 227 0.0 0.0 0.00 0.00 0.00 55 1009.0
20260505201601 54 227 0.0 0.0 0.00 0.00 0.00 55 1009.0
20260505200058 53 227 0.0 0.0 0.00 0.00 0.00 55 1009.1
20260505194539 53 227 0.0 0.0 0.00 0.00 0.00 58 1009.1
20260505193039 53 227 0.0 0.0 0.00 0.00 0.00 57 1009.2
20260505191522 53 227 0.0 0.0 0.00 0.00 0.00 57 1009.2
20260505190021 53 227 0.0 0.0 0.00 0.00 0.00 60 1009.2
20260505184509 52 227 0.0 0.0 0.00 0.00 0.00 58 1009.2
20260505183010 52 227 0.0 0.0 0.00 0.00 0.00 61 1009.1
20260505181508 51 227 0.0 0.0 0.00 0.00 0.00 62 1009.1
20260505180015 51 227 0.0 0.0 0.00 0.00 0.00 62 1009.1
20260505174507 51 227 0.0 0.0 0.00 0.00 0.00 66 1009.2
20260505173006 50 227 0.0 0.0 0.00 0.00 0.00 70 1009.2
20260505171506 50 227 0.0 0.0 0.00 0.00 0.00 69 1009.3
20260505170005 50 227 0.0 0.0 0.00 0.00 0.00 67 1009.2
20260505164553 49 227 0.0 0.0 0.00 0.00 0.00 68 1009.1
20260505163051 49 227 0.0 0.0 0.00 0.00 0.00 71 1008.9
20260505161554 49 227 0.0 0.0 0.00 0.00 0.00 72 1008.9
20260505153046 48 227 0.0 0.0 0.00 0.00 0.00 72 1008.5
20260505151546 48 227 0.0 0.0 0.00 0.00 0.00 75 1008.3
20260505124506 52 227 0.0 0.0 0.00 0.00 0.00 62 1006.4
20260505123014 52 227 0.0 0.0 0.00 0.00 0.00 60 1006.1
20260505121505 52 227 0.0 0.0 0.00 0.00 0.00 60 1006.1
20260505120005 52 227 0.0 0.0 0.00 0.00 0.00 67 1006.0
20260505114501 52 227 0.0 0.0 0.00 0.00 0.00 67 1006.2
20260505113100 52 227 0.0 0.0 0.00 0.00 0.00 68 1006.1
20260505111600 52 227 0.0 0.0 0.00 0.00 0.00 69 1006.2
20260505101600 53 227 0.0 0.0 0.00 0.00 0.00 69 1006.2
20260505100059 53 227 0.0 0.0 0.00 0.00 0.00 67 1006.1
20260505094541 54 227 0.0 0.0 0.00 0.00 0.00 68 1006.1
20260505093041 54 227 0.0 0.0 0.00 0.00 0.00 66 1006.1
20260505091541 54 227 0.0 0.0 0.00 0.00 0.00 65 1006.1
20260505090040 54 227 0.0 0.0 0.00 0.00 0.00 62 1006.1
20260505084528 53 227 0.0 0.0 0.00 0.00 0.00 64 1006.0
20260505083026 53 227 0.0 0.0 0.00 0.00 0.00 64 1006.3
20260505081524 53 227 0.0 0.0 0.00 0.00 0.00 67 1006.2
20260505080023 53 227 0.0 0.0 0.00 0.00 0.00 69 1006.3
20260505074522 54 227 0.0 0.0 0.00 0.00 0.00 69 1006.5
20260505073032 54 227 0.0 0.0 0.00 0.00 0.00 68 1006.5
20260505071515 54 227 0.0 0.0 0.00 0.00 0.00 67 1006.8
20260505070015 55 227 0.0 0.0 0.00 0.00 0.00 66 1006.9
20260505064502 55 227 0.0 0.0 0.00 0.00 0.00 66 1007.2
20260505063002 55 227 0.0 0.0 0.00 0.00 0.00 64 1007.2
20260505061505 55 227 0.0 0.0 0.00 0.00 0.00 64 1007.2
20260505060001 55 227 0.0 0.0 0.00 0.00 0.00 66 1007.3
20260505054601 56 227 0.0 0.0 0.00 0.00 0.00 66 1007.3
20260505053100 56 227 0.0 0.0 0.00 0.00 0.00 65 1007.3